Regional Weather Roundup
Issued by NWS

Home | Current Version | Previous Version | Graphics & Text | Print | Product List | Glossary On
Versions: 1 2 3 4 5 6 7 8 9 10 11 12 13 14 15 16 17 18 19 20 21 22 23 24 25 26 27
000
ASUS45 KSLC 251810
RWRUT

UTAH REGIONAL WEATHER ROUNDUP
NATIONAL WEATHER SERVICE SALT LAKE CITY UT
1200 PM MDT SAT MAR 25 2017

UTZ001>011-023>025-251900-

NORTHERN UTAH

CITY           SKY/WX    TMP DP  RH WIND       PRES   REMARKS
BRIGHAM CITY     N/A     41  36  83 N15G22    30.04S
HILL AFB       LGT RAIN  39  37  93 NW14      30.02S WCI  31
LOGAN          LGT RAIN  40  36  86 N15       30.05S WCI  32
OGDEN          LGT RAIN  39  38  96 NW15      30.02R WCI  31
SALT LAKE CITY RAIN      42  40  92 N14       30.03S FOG
WENDOVER       CLOUDY    46  34  62 CALM      30.05F
HEBER CITY     CLOUDY    45  36  70 W7        29.96F

$$

UTZ011>015-024>027-251900-

CENTRAL/NORTHEAST UTAH

CITY           SKY/WX    TMP DP  RH WIND       PRES   REMARKS
PROVO AIRPORT    N/A     49  38  65 NW10      30.00F
MOAB/CANYONLAN   N/A     56  28  34 E9        29.95F
DELTA          CLOUDY    45  37  76 NW14      30.00R
PRICE            N/A     51  30  44 S8        29.98F
ROOSEVELT        N/A     52  36  54 CALM      29.99F
VERNAL           N/A     51  30  44 SW3       29.97F

$$

UTZ013>016-019>022-027-251900-

SOUTHERN UTAH

CITY           SKY/WX    TMP DP  RH WIND       PRES   REMARKS
BRYCE CANYON   CLOUDY    41  28  60 SE12      30.04F
CEDAR CITY     CLOUDY    44  34  67 SW17G25   29.97F
MILFORD        LGT RAIN  49  32  52 SW20      29.98R
ST GEORGE      CLOUDY    55  42  61 NE8       29.99F
HANKSVILLE       N/A     59  27  29 CALM      29.97F
BLANDING         N/A     53  25  33 SE10      30.12F

$$

REGIONAL REPORTS     COLORADO/ARIZONA

CITY           SKY/WX    TMP DP  RH WIND       PRES   REMARKS
CRAIG, CO        N/A     57  19  22 VRB3      29.98F
GRAND JUNCTION   N/A     58  29  33 SE12      29.97F
RIFLE, CO        N/A     56  27  32 CALM      29.99F
MONTROSE, CO     N/A     57  25  29 N7        30.02F
CORTEZ, CO       N/A     58  24  27 VRB7      30.05F
COLORADO CITY  LGT RAIN  46  41  81 W6        30.06S
PAGE, AZ         N/A     53  36  52 W3        30.00S
GRAND CANYON     N/A     49  32  52 SW14      30.07F
KINGMAN, AZ    PTSUNNY   61  21  21 SW16G25   30.02S
FLAGSTAFF, AZ    N/A     47  30  51 SW16      30.09F

$$

REGIONAL REPORTS    NEVADA/IDAHO/WYOMING

CITY           SKY/WX    TMP DP  RH WIND       PRES   REMARKS
LAS VEGAS, NV  PTSUNNY   65  36  34 N15       29.98S
ELY, NY        CLOUDY    34  33  96 NW7       30.04S WCI  28
ELKO, NV         N/A     46  31  55 CALM      30.05F
POCATELLO, ID  PTSUNNY   43  37  79 SW15      30.05F
BURLEY, ID       N/A     45  35  68 W10G21    30.03F
FORT BRIDGER,  CLOUDY    45  32  61 NW7       30.02S
EVANSTON, WY   LGT SNOW  36  33  89 SW6       30.00F FOG     WCI  31
ROCK SPRINGS,    N/A     48  28  46 CALM      29.98F
KEMMERER, WY   LGT RAIN  37  30  75 SW3       30.02R

$$




USA.gov is the U.S. government's official web portal to all federal, state and local government web resources and services.